Location: ???? ??
(36.0534°N, 43.5630°E)
Time: 01:14:15
(UTC+00:00)

Cosmos 2181 Rocket - Pass Details

Date: 18 September 2019
Orbit: 953 x 1014 km, 82.9° (Epoch: 13 October)

Event Time Altitude Azimuth Distance (km) Brightness Sun altitude
Rises 16:37:13 0° 171° (S) 3,634 6.7 -18.3°
Reaches altitude 10° 16:39:44 10° 167° (SSE) 2,698 6.0 -18.8°
Maximum altitude 16:45:43 55° 91° (E) 1,167 4.0 -20.0°
Drops below altitude 10° 16:51:50 10° 16° (NNE) 2,755 6.4 -21.1°
Sets 16:54:26 0° 12° (NNE) 3,716 7.1 -21.6°
